Time,TemperatureF,DewpointF,PressureIn,WindDirection,WindDirectionDegrees,WindSpeedMPH,WindSpeedGustMPH,Humidity,HourlyPrecipIn,Conditions,Clouds,dailyrainin,SoftwareType,DateUTC
2013-08-19 00:02:00,67.0,65.0,30.09,SE,140,0.0,0.0,92,0.00,,,0.00,weatherlink.com 1.10,2013-08-19 05:02:00,
2013-08-19 00:17:00,66.8,65.0,30.09,SE,140,0.0,0.0,92,0.00,,,0.00,weatherlink.com 1.10,2013-08-19 05:17:00,
2013-08-19 00:32:00,66.3,64.0,30.09,SE,140,0.0,1.0,92,0.00,,,0.00,weatherlink.com 1.10,2013-08-19 05:32:00,
2013-08-19 00:47:00,65.9,64.0,30.10,SE,140,0.0,0.0,93,0.00,,,0.00,weatherlink.com 1.10,2013-08-19 05:47:00,
2013-08-19 01:02:00,66.1,64.0,30.10,SE,140,0.0,0.0,94,0.00,,,0.00,weatherlink.com 1.10,2013-08-19 06:02:00,
2013-08-19 01:17:00,65.8,64.0,30.09,SE,140,0.0,0.0,93,0.00,,,0.00,weatherlink.com 1.10,2013-08-19 06:17:00,
2013-08-19 01:32:00,65.4,63.0,30.09,SE,140,0.0,0.0,93,0.00,,,0.00,weatherlink.com 1.10,2013-08-19 06:32:00,
2013-08-19 01:47:00,65.3,64.0,30.09,SE,140,0.0,0.0,94,0.00,,,0.00,weatherlink.com 1.10,2013-08-19 06:47:00,
2013-08-19 02:02:00,65.0,63.0,30.09,SE,140,0.0,0.0,94,0.00,,,0.00,weatherlink.com 1.10,2013-08-19 07:02:00,
2013-08-19 02:17:00,64.8,63.0,30.09,SE,140,0.0,0.0,94,0.00,,,0.00,weatherlink.com 1.10,2013-08-19 07:17:00,
2013-08-19 02:32:00,64.7,63.0,30.08,SE,140,0.0,0.0,94,0.00,,,0.00,weatherlink.com 1.10,2013-08-19 07:32:00,
2013-08-19 02:47:00,64.6,63.0,30.08,SE,140,0.0,0.0,94,0.00,,,0.00,weatherlink.com 1.10,2013-08-19 07:47:00,
2013-08-19 03:02:00,64.5,63.0,30.09,SE,140,0.0,0.0,94,0.00,,,0.00,weatherlink.com 1.10,2013-08-19 08:02:00,
2013-08-19 03:17:00,64.4,63.0,30.08,SE,140,0.0,0.0,95,0.00,,,0.00,weatherlink.com 1.10,2013-08-19 08:17:00,
2013-08-19 03:32:00,64.3,63.0,30.08,SE,140,0.0,0.0,95,0.00,,,0.00,weatherlink.com 1.10,2013-08-19 08:32:00,
2013-08-19 03:47:00,64.3,63.0,30.08,SE,140,0.0,0.0,95,0.00,,,0.00,weatherlink.com 1.10,2013-08-19 08:47:00,
2013-08-19 04:02:00,64.1,63.0,30.07,SE,140,0.0,0.0,95,0.00,,,0.00,weatherlink.com 1.10,2013-08-19 09:02:00,
2013-08-19 04:17:00,63.9,63.0,30.07,SE,140,0.0,0.0,95,0.00,,,0.00,weatherlink.com 1.10,2013-08-19 09:17:00,
2013-08-19 04:32:00,63.9,63.0,30.07,SE,140,0.0,0.0,95,0.00,,,0.00,weatherlink.com 1.10,2013-08-19 09:32:00,
2013-08-19 04:47:00,63.8,62.0,30.07,SE,140,0.0,0.0,95,0.00,,,0.00,weatherlink.com 1.10,2013-08-19 09:47:00,
2013-08-19 05:02:00,63.5,62.0,30.07,SE,140,0.0,0.0,95,0.00,,,0.00,weatherlink.com 1.10,2013-08-19 10:02:00,
2013-08-19 05:17:00,63.4,62.0,30.07,SE,140,0.0,0.0,95,0.00,,,0.00,weatherlink.com 1.10,2013-08-19 10:17:00,
2013-08-19 05:32:00,63.3,62.0,30.07,SE,140,0.0,0.0,95,0.00,,,0.00,weatherlink.com 1.10,2013-08-19 10:32:00,
2013-08-19 05:47:00,63.3,62.0,30.07,SE,140,0.0,0.0,95,0.00,,,0.00,weatherlink.com 1.10,2013-08-19 10:47:00,
2013-08-19 06:02:00,63.4,62.0,30.08,SE,140,0.0,0.0,95,0.00,,,0.00,weatherlink.com 1.10,2013-08-19 11:02:00,
2013-08-19 06:17:00,63.4,62.0,30.08,SE,140,0.0,0.0,95,0.00,,,0.00,weatherlink.com 1.10,2013-08-19 11:17:00,
2013-08-19 06:32:00,63.5,62.0,30.08,SE,140,0.0,0.0,95,0.00,,,0.00,weatherlink.com 1.10,2013-08-19 11:32:00,
2013-08-19 06:47:00,63.5,62.0,30.09,SE,140,0.0,0.0,95,0.00,,,0.00,weatherlink.com 1.10,2013-08-19 11:47:00,
2013-08-19 07:02:00,63.7,63.0,30.09,SE,140,0.0,0.0,96,0.00,,,0.00,weatherlink.com 1.10,2013-08-19 12:02:00,
2013-08-19 07:17:00,64.5,63.0,30.10,SE,140,0.0,0.0,96,0.00,,,0.00,weatherlink.com 1.10,2013-08-19 12:17:00,
2013-08-19 07:32:00,65.4,64.0,30.10,SE,140,0.0,0.0,96,0.00,,,0.00,weatherlink.com 1.10,2013-08-19 12:32:00,
2013-08-19 07:47:00,66.3,65.0,30.10,SE,140,0.0,2.0,96,0.00,,,0.00,weatherlink.com 1.10,2013-08-19 12:47:00,
2013-08-19 08:02:00,67.4,66.0,30.10,SE,140,0.0,1.0,95,0.00,,,0.00,weatherlink.com 1.10,2013-08-19 13:02:00,
2013-08-19 08:17:00,68.8,67.0,30.11,SSE,150,2.0,5.0,94,0.00,,,0.00,weatherlink.com 1.10,2013-08-19 13:17:00,
2013-08-19 08:32:00,70.1,67.0,30.11,SE,142,6.0,6.0,91,0.00,,,0.00,weatherlink.com 1.10,2013-08-19 13:32:00,
2013-08-19 08:47:00,71.0,67.0,30.12,SSE,150,6.0,10.0,88,0.00,,,0.00,weatherlink.com 1.10,2013-08-19 13:47:00,
2013-08-19 09:02:00,72.1,68.0,30.12,SSE,148,3.0,10.0,86,0.00,,,0.00,weatherlink.com 1.10,2013-08-19 14:02:00,
2013-08-19 09:17:00,73.2,68.0,30.12,SE,138,8.0,9.0,84,0.00,,,0.00,weatherlink.com 1.10,2013-08-19 14:17:00,
2013-08-19 09:32:00,74.2,69.0,30.12,SE,132,6.0,8.0,83,0.00,,,0.00,weatherlink.com 1.10,2013-08-19 14:32:00,
2013-08-19 09:47:00,75.1,68.0,30.12,SE,134,6.0,12.0,79,0.00,,,0.00,weatherlink.com 1.10,2013-08-19 14:47:00,
2013-08-19 10:03:00,76.1,70.0,30.12,SE,140,6.0,8.0,80,0.00,,,0.00,weatherlink.com 1.10,2013-08-19 15:03:00,
2013-08-19 10:18:00,76.9,70.0,30.12,South,184,6.0,14.0,78,0.00,,,0.00,weatherlink.com 1.10,2013-08-19 15:18:00,
2013-08-19 10:33:00,77.7,69.0,30.12,South,182,8.0,12.0,74,0.00,,,0.00,weatherlink.com 1.10,2013-08-19 15:33:00,
2013-08-19 10:48:00,78.5,69.0,30.12,ESE,123,10.0,14.0,72,0.00,,,0.00,weatherlink.com 1.10,2013-08-19 15:48:00,
2013-08-19 11:03:00,79.2,69.0,30.12,South,176,6.0,15.0,71,0.00,,,0.00,weatherlink.com 1.10,2013-08-19 16:03:00,
2013-08-19 11:18:00,79.7,69.0,30.12,SE,143,8.0,15.0,70,0.00,,,0.00,weatherlink.com 1.10,2013-08-19 16:18:00,
2013-08-19 11:33:00,80.3,69.0,30.11,SSE,165,4.0,14.0,69,0.00,,,0.00,weatherlink.com 1.10,2013-08-19 16:33:00,
2013-08-19 11:48:00,80.5,69.0,30.11,SE,136,9.0,13.0,68,0.00,,,0.00,weatherlink.com 1.10,2013-08-19 16:48:00,
2013-08-19 12:03:00,81.1,70.0,30.11,SSE,154,8.0,14.0,69,0.00,,,0.00,weatherlink.com 1.10,2013-08-19 17:03:00,
2013-08-19 12:18:00,81.5,69.0,30.10,SE,127,7.0,14.0,66,0.00,,,0.00,weatherlink.com 1.10,2013-08-19 17:18:00,
2013-08-19 12:33:00,81.6,70.0,30.10,South,171,8.0,15.0,67,0.00,,,0.00,weatherlink.com 1.10,2013-08-19 17:33:00,
2013-08-19 12:48:00,82.4,70.0,30.10,South,189,5.0,15.0,67,0.00,,,0.00,weatherlink.com 1.10,2013-08-19 17:48:00,
2013-08-19 13:03:00,82.1,69.0,30.09,SE,141,6.0,12.0,65,0.00,,,0.00,weatherlink.com 1.10,2013-08-19 18:03:00,
2013-08-19 13:18:00,82.5,69.0,30.09,SSE,162,6.0,15.0,63,0.00,,,0.00,weatherlink.com 1.10,2013-08-19 18:18:00,
2013-08-19 13:33:00,83.3,70.0,30.09,ESE,119,7.0,11.0,64,0.00,,,0.00,weatherlink.com 1.10,2013-08-19 18:33:00,
2013-08-19 13:48:00,83.7,69.0,30.08,South,178,4.0,11.0,61,0.00,,,0.00,weatherlink.com 1.10,2013-08-19 18:48:00,
2013-08-19 14:03:00,84.0,70.0,30.08,SSE,160,5.0,14.0,62,0.00,,,0.00,weatherlink.com 1.10,2013-08-19 19:03:00,
2013-08-19 14:18:00,83.9,69.0,30.08,SSE,157,6.0,10.0,61,0.00,,,0.00,weatherlink.com 1.10,2013-08-19 19:18:00,
2013-08-19 14:33:00,84.7,70.0,30.08,South,169,8.0,11.0,61,0.00,,,0.00,weatherlink.com 1.10,2013-08-19 19:33:00,
2013-08-19 14:48:00,85.0,69.0,30.07,South,173,10.0,11.0,59,0.00,,,0.00,weatherlink.com 1.10,2013-08-19 19:48:00,
2013-08-19 15:03:00,85.0,69.0,30.06,SSE,151,8.0,11.0,59,0.00,,,0.00,weatherlink.com 1.10,2013-08-19 20:03:00,
2013-08-19 15:18:00,85.1,68.0,30.06,SSW,213,1.0,9.0,56,0.00,,,0.00,weatherlink.com 1.10,2013-08-19 20:18:00,
2013-08-19 15:33:00,85.0,69.0,30.06,South,184,3.0,9.0,59,0.00,,,0.00,weatherlink.com 1.10,2013-08-19 20:33:00,
2013-08-19 15:48:00,85.2,67.0,30.05,SE,136,7.0,10.0,55,0.00,,,0.00,weatherlink.com 1.10,2013-08-19 20:48:00,
2013-08-19 16:03:00,85.4,68.0,30.05,South,175,5.0,11.0,56,0.00,,,0.00,weatherlink.com 1.10,2013-08-19 21:03:00,
2013-08-19 16:18:00,85.1,69.0,30.04,SSE,154,4.0,6.0,58,0.00,,,0.00,weatherlink.com 1.10,2013-08-19 21:18:00,
2013-08-19 16:33:00,84.6,67.0,30.04,SSW,192,6.0,11.0,55,0.00,,,0.00,weatherlink.com 1.10,2013-08-19 21:33:00,
2013-08-19 16:48:00,84.5,67.0,30.04,SSE,165,5.0,8.0,55,0.00,,,0.00,weatherlink.com 1.10,2013-08-19 21:48:00,
2013-08-19 17:03:00,84.4,68.0,30.03,South,178,2.0,8.0,58,0.00,,,0.00,weatherlink.com 1.10,2013-08-19 22:03:00,
2013-08-19 17:18:00,84.6,68.0,30.03,South,182,4.0,8.0,57,0.00,,,0.00,weatherlink.com 1.10,2013-08-19 22:18:00,
2013-08-19 17:33:00,84.9,67.0,30.03,South,186,4.0,8.0,56,0.00,,,0.00,weatherlink.com 1.10,2013-08-19 22:33:00,
2013-08-19 17:48:00,84.9,67.0,30.02,SSW,194,4.0,7.0,55,0.00,,,0.00,weatherlink.com 1.10,2013-08-19 22:48:00,
2013-08-19 18:03:00,84.9,67.0,30.02,South,169,3.0,6.0,55,0.00,,,0.00,weatherlink.com 1.10,2013-08-19 23:03:00,
2013-08-19 18:18:00,84.8,66.0,30.01,ESE,121,5.0,8.0,53,0.00,,,0.00,weatherlink.com 1.10,2013-08-19 23:18:00,
2013-08-19 18:33:00,84.5,67.0,30.00,SE,141,3.0,5.0,55,0.00,,,0.00,weatherlink.com 1.10,2013-08-19 23:33:00,
2013-08-19 18:48:00,84.1,67.0,30.00,South,177,2.0,5.0,57,0.00,,,0.00,weatherlink.com 1.10,2013-08-19 23:48:00,
2013-08-19 19:03:00,83.4,67.0,30.00,South,173,3.0,5.0,59,0.00,,,0.00,weatherlink.com 1.10,2013-08-20 00:03:00,
2013-08-19 19:18:00,83.0,68.0,30.00,South,173,1.0,3.0,61,0.00,,,0.00,weatherlink.com 1.10,2013-08-20 00:18:00,
2013-08-19 19:33:00,82.7,68.0,30.00,South,173,0.0,2.0,61,0.00,,,0.00,weatherlink.com 1.10,2013-08-20 00:33:00,
2013-08-19 19:48:00,82.2,68.0,30.00,South,173,0.0,2.0,63,0.00,,,0.00,weatherlink.com 1.10,2013-08-20 00:48:00,
2013-08-19 20:03:00,80.5,69.0,30.00,South,173,0.0,1.0,69,0.00,,,0.00,weatherlink.com 1.10,2013-08-20 01:03:00,
2013-08-19 20:18:00,78.9,70.0,30.00,South,173,0.0,0.0,74,0.00,,,0.00,weatherlink.com 1.10,2013-08-20 01:18:00,
2013-08-19 20:33:00,77.4,69.0,30.00,South,173,0.0,0.0,76,0.00,,,0.00,weatherlink.com 1.10,2013-08-20 01:33:00,
2013-08-19 20:49:00,76.0,69.0,30.01,South,173,0.0,0.0,80,0.00,,,0.00,weatherlink.com 1.10,2013-08-20 01:49:00,
2013-08-19 21:04:00,74.8,69.0,30.01,South,173,0.0,0.0,81,0.00,,,0.00,weatherlink.com 1.10,2013-08-20 02:04:00,
2013-08-19 21:19:00,74.1,69.0,30.01,South,173,0.0,0.0,84,0.00,,,0.00,weatherlink.com 1.10,2013-08-20 02:19:00,
2013-08-19 21:34:00,73.4,69.0,30.02,South,173,0.0,0.0,85,0.00,,,0.00,weatherlink.com 1.10,2013-08-20 02:34:00,
2013-08-19 21:49:00,73.0,69.0,30.03,South,173,0.0,0.0,87,0.00,,,0.00,weatherlink.com 1.10,2013-08-20 02:49:00,
2013-08-19 22:04:00,72.5,69.0,30.03,South,173,0.0,0.0,88,0.00,,,0.00,weatherlink.com 1.10,2013-08-20 03:04:00,
2013-08-19 22:19:00,72.0,68.0,30.03,South,173,0.0,0.0,88,0.00,,,0.00,weatherlink.com 1.10,2013-08-20 03:19:00,
2013-08-19 22:34:00,71.6,68.0,30.04,South,173,0.0,0.0,89,0.00,,,0.00,weatherlink.com 1.10,2013-08-20 03:34:00,
2013-08-19 22:49:00,71.1,68.0,30.04,South,173,0.0,0.0,90,0.00,,,0.00,weatherlink.com 1.10,2013-08-20 03:49:00,
2013-08-19 23:04:00,70.7,68.0,30.04,South,173,0.0,0.0,91,0.00,,,0.00,weatherlink.com 1.10,2013-08-20 04:04:00,
2013-08-19 23:19:00,70.5,68.0,30.04,South,173,0.0,0.0,91,0.00,,,0.00,weatherlink.com 1.10,2013-08-20 04:19:00,
2013-08-19 23:34:00,70.3,68.0,30.04,South,173,0.0,0.0,91,0.00,,,0.00,weatherlink.com 1.10,2013-08-20 04:34:00,
2013-08-19 23:49:00,69.9,68.0,30.04,South,173,0.0,0.0,92,0.00,,,0.00,weatherlink.com 1.10,2013-08-20 04:49:00,